SCP
-0 -0 -0 0 0 0 0 0 0 0 -0 -0 -0 -0 -0 -0 -0 -0 -0 -0 0 0 -0 0 -0 -0 -0 -0 -0 -0 -0 -0 -0 -0 -0 -0 -0 -0 -0 -0 -0 0 -0
0 0 0 -0 0 0 0 -0 0 -0 -0 0 0 -0 -0 -0 -0 -0 -0 -0 -0 -0 -0 -0 -0 -0 -0 -0 -0 -0 -0 -0 0 -0 -0 -0 -0 -0 -0 -0 -0 0 -0
0 0 -0 -0 0 0 -0 0 0 -0 -0 -0 -0 0 -0 -0 -0 -0 -0 -0 -0 -0 -0 -0 -0 -0 -0 -0 -0 -0 -0 -0 -0 -0 -0 0 0 -0 -0 -0 -0 -0 -0
-0 -0 -0 -0 -0 -0 0 0 0 0 -0 0 0 0 0 0 0 -0 -0 -0 -0 0 -0 -0 -0 -0 -0 -0 -0 -0 -0 -0 0 -0 -0 -0 -0 -0 -0 -0 -0 -0 -0
0 0 0 0 0 0 -0 0 0 -0 -0 0 0 0 0 0 0 0 0 0 -0 -0 -0 -0 -0 0 -0 0 0 0 -0 0 -0 -0 -0 -0 -0 0 -0 -0 -0 -0 -0
-0 0 0 0 0 -0 -0 -0 -0 -0 0 0 0 0 0 0 0 0 0 0 -0 -0 0 0 0 0 0 0 0 0 0 0 -0 -0 -0 -0 -0 -0 -0 -0 -0 -0 -0
-0 0 0 0 -0 -0 -0 -0 -0 -0 0 0 0 0 0 0 0 0 -0 0 0 0 0 0 0 0 0 0 0 0 -0 -0 0 -0 -0 0 0 -0 -0 -0 -0 -0 -0
-0 0 0 0 0 -0 -0 -0 -0 -0 0 0 0 0 0 0 0 0 0 0 0 0 0 0 0 0 0 0 0 0 0 -0 -0 -0 0 0 -0 -0 -0 -0 -0 -0 -0
-0 0 -0 -0 0 0 0 -0 -0 0 0 0 0 0 0 0 0 0 0 0 0 0 0 0 0 0 0 0 0 0 0 -0 -0 0 -0 -0 -0 -0 -0 -0 -0 -0 -0
-0 0 -0 -0 -0 -0 -0 0 0 0 0 0 0 0 0 0 0 0 0 -0 -0 0 0 0 0 0 0 0 0 0 -0 -0 0 0 0 0 -0 -0 -0 -0 -0 -0 -0
0 0 0 -0 -0 -0 -0 0 0 0 0 -0 0 0 0 0 0 0 -0 0 0 0 0 0 0 0 -0 0 -0 0 0 0 0 0 0 0 0 -0 -0 -0 -0 -0 -0
0 0 0 0 -0 -0 -0 -0 -0 -0 -0 0 0 0 0 0 0 -0 0 -0 -0 0 0 0 -0 -0 -0 -0 0 0 0 0 0 0 0 0 -0 -0 -0 -0 -0 -0 -0
0 0 0 0 0 0 -0 -0 -0 -0 -0 -0 0 0 0 0 -0 -0 -0 -0 -0 0 -0 0 0 0 0 0 0 0 0 0 0 0 0 -0 -0 -0 -0 -0 -0 0 0
0 0 0 0 0 -0 -0 -0 -0 -0 -0 -0 -0 0 0 -0 0 0 -0 0 0 0 0 0 0 0 0 0 -0 0 0 0 0 0 0 0 -0 -0 0 0 0 0 0
-0 -0 -0 0 0 -0 -0 -0 -0 -0 -0 -0 0 -0 0 0 0 0 0 0 0 0 0 -0 -0 0 0 0 0 0 0 0 0 0 0 0 0 0 0 0 0 0 0
-0 -0 -0 -0 -0 -0 -0 0 0 0 0 0 0 -0 -0 0 0 0 0 0 0 0 0 0 0 0 0 0 0 -0 0 0 -0 -0 0 0 0 0 0 0 0 0 0
-0 -0 -0 -0 0 0 0 0 0 0 0 0 0 0 0 0 0 0 0 -0 0 -0 -0 0 0 -0 0 0 0 0 0 0 0 0 -0 -0 0 0 0 0 0 0 0
-0 -0 -0 -0 -0 -0 -0 0 -0 -0 -0 -0 0 0 0 0 0 0 0 0 0 0 0 -0 -0 0 0 0 0 0 0 0 0 0 0 0 0 0 0 0 0 0 0
-0 -0 -0 -0 0 0 0 -0 0 0 -0 -0 0 0 0 0 0 0 0 0 0 0 0 0 -0 0 0 0 -0 0 0 0 0 0 0 0 0 0 0 0 0 0 0
-0 -0 -0 -0 -0 -0 -0 -0 0 -0 -0 0 0 0 0 0 0 0 0 0 0 0 0 -0 -0 0 -0 0 0 0 0 0 0 0 0 0 0 0 0 0 0 0 0
-0 -0 -0 -0 0 0 -0 -0 0 0 -0 -0 0 0 0 0 0 0 0 0 0 0 0 0 0 0 0 0 0 0 -0 0 0 0 0 0 0 0 0 0 0 0 0
-0 -0 0 -0 0 0 0 -0 -0 -0 -0 -0 -0 -0 -0 0 0 0 0 0 0 0 0 -0 0 0 0 0 0 0 0 0 0 0 0 0 0 0 1 0 1 0 0
-0 -0 0 0 0 0 0 -0 0 0 0 -0 -0 -0 -0 0 0 0 0 0 0 0 0 -0 -0 0 0 0 0 0 0 0 0 0 0 0 0 0 0 0 0 0 0
-0 -0 0 0 0 0 0 -0 -0 0 -0 0 0 -0 0 0 0 0 -0 -0 0 0 0 -0 -0 0 0 -0 -0 0 0 0 0 0 0 0 0 0 0 0 0 0 0
-0 -0 -0 0 0 0 0 0 -0 -0 -0 -0 0 0 0 -0 -0 -0 -0 -0 -0 0 0 0 -0 -0 -0 -0 -0 0 0 0 0 0 0 0 0 0 0 0 0 0 0
-0 -0 -0 0 0 0 0 0 -0 -0 -0 -0 -0 0 0 0 0 -0 -0 -0 -0 0 -0 0 -0 -0 -0 -0 -0 -0 0 0 0 0 0 0 0 0 0 0 0 0 0
Wind_Speed_500mb
54 45 44 43 36 32 29 28 23 18 18 18 19 21 21 23 24 23 20 18 16 15 18 21 23 26 26 27 33 33 34 35 37 36 39 40 40 43 37 35 41 40 42
59 48 44 37 32 29 25 24 22 17 17 20 19 18 20 21 21 23 24 22 20 19 19 21 21 23 26 28 31 32 35 38 43 39 33 36 39 36 28 37 42 40 41
57 47 42 36 31 26 27 27 23 18 17 18 17 17 20 20 23 22 21 23 21 24 23 24 19 23 25 29 31 34 38 38 35 40 28 33 35 33 36 37 40 39 40
56 47 42 35 30 30 29 26 23 20 17 17 18 19 20 22 24 22 24 23 27 27 23 22 21 24 29 33 38 37 40 39 38 28 26 29 38 37 38 39 37 38 41
54 47 41 37 35 30 25 22 21 21 21 21 23 22 24 24 23 22 25 26 24 27 26 24 22 28 34 39 39 39 34 41 34 26 26 29 39 38 36 35 37 38 39
53 49 43 38 33 30 27 24 24 23 23 24 23 23 22 23 24 25 25 25 26 27 28 29 30 32 39 43 39 36 36 35 31 14 28 29 35 35 29 34 37 37 32
48 46 42 36 32 29 28 26 24 24 24 26 25 25 24 23 22 24 24 25 28 27 26 27 30 35 46 41 36 32 35 30 21 21 12 26 33 30 33 32 36 30 30
48 46 43 37 35 31 30 28 26 26 26 27 26 24 23 23 22 21 24 26 31 31 30 28 28 32 44 43 40 36 33 25 19 17 22 26 32 30 31 31 32 30 31
46 48 44 38 36 32 31 29 27 27 27 27 26 25 24 24 21 19 23 27 27 28 29 28 32 35 42 44 38 32 32 27 19 22 21 25 28 29 30 30 30 29 28
49 46 43 38 34 35 32 30 28 28 29 30 29 30 29 29 29 28 25 28 28 29 26 29 32 33 45 42 36 33 30 27 15 18 20 23 28 26 28 27 27 26 25
38 42 41 40 36 34 34 32 31 31 34 35 35 31 29 31 33 31 27 26 28 28 30 31 32 36 45 38 34 25 18 20 21 19 19 24 25 26 26 25 25 22 23
43 39 39 38 38 32 31 32 33 37 36 35 29 27 25 27 27 28 31 33 31 27 27 26 35 36 37 32 25 15 15 15 15 16 22 24 24 24 23 23 22 21 20
43 40 42 33 40 38 30 41 38 32 24 20 16 23 27 25 20 32 35 36 33 32 21 17 16 18 21 24 17 15 39 17 15 18 18 20 21 21 21 20 19 19 18
55 52 43 40 40 33 37 33 30 30 25 13 25 13 18 18 11 13 17 20 19 15 21 16 21 21 26 34 35 24 31 21 17 17 18 16 18 19 19 18 18 17 16
65 63 55 45 37 33 23 23 21 22 27 26 18 13 15 15 17 17 12 14 20 13 18 28 19 18 23 30 27 25 42 19 18 17 17 16 16 17 15 14 12 12 12
58 70 54 58 46 40 25 21 30 28 22 24 19 10 13 18 17 13 12 16 9 13 15 19 22 19 20 32 18 26 24 22 25 26 21 20 18 16 14 12 11 9 8
60 66 62 53 45 44 37 35 34 31 30 25 18 11 16 19 16 13 13 18 17 15 24 20 19 16 12 22 27 26 10 6 9 20 24 25 26 23 21 16 12 8 5
63 62 59 51 48 50 45 44 27 23 31 22 20 14 16 14 18 15 13 18 18 16 13 23 26 24 28 20 19 27 18 11 19 17 17 20 23 20 21 21 16 14 13
58 60 49 40 50 57 49 48 29 26 23 16 13 15 11 14 15 21 12 14 17 14 18 17 18 23 25 27 24 20 20 14 9 15 14 17 13 14 18 20 15 16 16
61 57 44 40 43 46 46 52 34 26 24 28 16 12 9 12 14 21 25 25 15 15 13 22 30 18 21 26 14 22 12 8 12 10 11 6 3 8 10 18 11 9 13
71 65 55 51 47 45 46 58 43 32 30 27 26 15 16 9 13 16 22 22 15 13 17 22 25 25 22 28 19 23 13 17 4 3 10 9 2 4 4 10 11 5 6
78 71 63 59 54 47 47 60 45 33 35 28 24 24 8 13 9 12 16 19 13 9 16 23 13 19 26 16 19 11 11 13 12 10 7 15 8 7 11 8 22 22 12
83 77 70 70 60 54 46 54 45 34 37 29 30 28 17 12 14 19 16 16 17 10 12 19 25 19 18 20 8 9 9 10 16 13 13 8 10 4 12 13 16 17 22
86 78 72 73 69 61 53 54 56 48 47 38 34 26 16 16 14 10 10 13 20 19 14 34 27 22 20 14 10 9 10 8 17 15 13 15 8 20 11 12 16 17 20
88 84 80 71 78 69 63 58 61 55 50 39 37 34 26 17 19 15 5 9 24 16 19 23 23 14 16 11 14 10 10 7 16 14 11 17 15 12 16 12 6 11 14
92 89 84 76 79 78 70 64 66 63 57 46 47 45 37 30 20 25 21 9 17 22 22 25 23 24 21 20 19 16 12 6 8 2 9 7 19 16 9 14 11 12 16
Wind_Direction_500mb
161 151 147 142 139 132 137 145 143 122 103 111 107 88 86 94 90 88 90 94 102 110 120 126 120 116 116 115 108 103 106 105 101 96 96 98 95 94 86 95 93 93 94
153 153 152 152 145 137 143 145 139 130 107 105 108 89 89 92 87 85 86 86 99 106 120 122 124 120 114 110 108 102 101 101 95 85 97 99 98 97 90 94 96 95 92
155 158 157 155 148 145 142 139 146 129 115 109 104 98 99 96 98 95 91 89 100 101 103 114 117 123 118 109 110 104 97 101 95 78 83 101 100 100 98 92 94 93 92
156 160 157 152 147 145 142 140 138 132 124 117 112 108 103 104 100 94 94 83 90 108 103 116 110 119 115 113 111 105 105 91 99 86 75 100 102 99 95 95 97 95 95
156 153 150 146 145 145 142 137 134 129 125 120 117 113 106 106 101 95 100 104 105 101 106 108 107 113 115 115 118 106 100 106 108 98 83 101 101 100 95 95 96 94 93
146 149 148 147 143 140 135 133 132 130 126 123 120 121 115 111 107 100 99 98 99 102 106 100 104 109 114 121 110 107 115 104 110 103 88 105 103 102 97 99 99 97 102
146 149 146 144 139 141 144 137 131 128 126 125 122 120 114 107 105 109 108 101 107 105 108 106 103 103 121 123 106 102 111 108 96 99 98 112 104 105 100 98 106 97 95
156 149 144 144 143 142 137 134 130 129 125 127 124 115 105 102 98 104 110 103 107 96 109 102 100 108 126 125 107 99 104 115 93 83 108 111 108 106 102 99 104 96 97
155 149 146 147 144 141 137 131 130 127 123 126 121 111 101 90 90 102 113 110 104 98 97 99 101 106 126 126 115 114 107 106 99 95 113 115 113 109 108 103 102 104 100
147 149 145 145 147 143 140 136 136 126 123 123 117 109 96 85 82 89 114 115 103 96 97 96 103 114 127 130 122 123 114 115 105 96 118 119 117 114 114 112 105 110 100
146 152 149 149 147 143 137 133 128 123 123 123 123 116 94 84 68 79 96 109 110 107 108 107 118 123 131 130 124 129 133 93 98 106 127 127 122 119 115 116 110 106 104
144 149 152 146 146 139 131 125 120 120 120 123 121 106 108 93 72 82 98 102 105 111 119 116 120 126 130 135 144 130 130 120 93 122 127 130 124 124 121 119 112 111 108
150 144 146 131 140 124 128 129 118 122 117 109 87 105 109 115 102 107 99 102 114 123 128 125 139 124 123 119 128 121 147 134 98 123 125 126 125 127 123 120 115 113 109
160 157 153 140 139 126 140 125 124 125 128 95 112 122 133 125 146 123 134 129 129 144 146 122 133 94 123 123 83 115 158 161 103 112 112 116 117 121 118 119 115 110 108
165 172 159 156 157 145 142 144 125 142 128 124 144 162 151 142 107 137 129 134 149 131 90 171 133 84 121 116 95 104 161 121 75 86 104 106 104 106 109 110 106 101 106
176 171 158 161 156 165 169 172 171 168 172 156 156 148 136 138 114 141 107 97 108 142 131 112 130 134 121 108 104 119 122 101 91 69 86 96 95 95 93 93 92 97 100
169 164 168 174 164 165 166 146 153 168 164 157 176 162 168 144 154 137 90 108 131 126 119 144 119 137 132 107 106 126 86 92 78 75 84 88 80 82 70 70 73 74 86
171 172 172 180 180 177 170 154 165 166 162 157 188 215 178 172 149 158 139 116 115 116 109 131 139 128 141 147 144 133 128 87 103 103 89 88 84 67 61 58 69 63 46
179 181 182 192 190 183 177 164 164 159 161 158 159 142 146 161 165 158 149 125 111 115 102 124 150 138 133 150 131 155 139 106 125 106 109 84 89 70 50 44 84 62 43
184 184 180 187 183 179 183 173 152 160 170 166 190 175 146 149 149 156 136 142 142 130 95 129 133 142 149 144 147 175 147 146 119 120 113 76 76 63 38 30 72 15 10
184 187 186 190 193 188 175 176 164 173 173 186 188 208 184 179 142 123 149 140 121 114 138 141 144 142 119 144 147 150 133 177 140 103 208 238 250 62 347 38 25 335 308
185 192 191 191 196 197 183 178 175 175 184 182 185 185 160 175 147 146 135 145 143 132 158 147 160 133 148 123 153 157 159 185 211 229 220 221 213 255 279 332 2 10 326
189 193 193 192 198 201 196 179 176 174 184 190 189 176 172 208 197 173 152 151 160 135 139 162 164 161 157 142 153 150 140 165 187 193 229 181 197 252 307 267 332 356 6
193 195 197 197 198 201 202 189 178 185 185 190 193 198 200 203 191 185 175 169 165 149 150 156 162 146 153 165 153 130 103 95 169 182 186 205 192 207 237 255 293 310 356
196 197 198 204 202 203 205 197 184 185 187 189 202 205 216 194 198 218 198 178 184 174 156 170 167 179 182 178 169 132 142 127 137 189 196 217 218 202 219 265 329 308 329
200 199 200 204 208 208 205 201 192 188 187 193 200 214 212 202 203 202 226 221 181 198 181 184 194 192 191 178 192 194 216 169 180 46 313 257 266 231 205 201 272 329 342
Wind_Speed_850mb
54 45 44 43 36 32 29 28 23 18 18 18 19 21 21 23 24 23 20 18 16 15 18 21 23 26 26 27 33 33 34 35 37 36 39 40 40 43 37 35 41 40 42
59 48 44 37 32 29 25 24 22 17 17 20 19 18 20 21 21 23 24 22 20 19 19 21 21 23 26 28 31 32 35 38 43 39 33 36 39 36 28 37 42 40 41
57 47 42 36 31 26 27 27 23 18 17 18 17 17 20 20 23 22 21 23 21 24 23 24 19 23 25 29 31 34 38 38 35 40 28 33 35 33 36 37 40 39 40
56 47 42 35 30 30 29 26 23 20 17 17 18 19 20 22 24 22 24 23 27 27 23 22 21 24 29 33 38 37 40 39 38 28 26 29 38 37 38 39 37 38 41
54 47 41 37 35 30 25 22 21 21 21 21 23 22 24 24 23 22 25 26 24 27 26 24 22 28 34 39 39 39 34 41 34 26 26 29 39 38 36 35 37 38 39
53 49 43 38 33 30 27 24 24 23 23 24 23 23 22 23 24 25 25 25 26 27 28 29 30 32 39 43 39 36 36 35 31 14 28 29 35 35 29 34 37 37 32
48 46 42 36 32 29 28 26 24 24 24 26 25 25 24 23 22 24 24 25 28 27 26 27 30 35 46 41 36 32 35 30 21 21 12 26 33 30 33 32 36 30 30
48 46 43 37 35 31 30 28 26 26 26 27 26 24 23 23 22 21 24 26 31 31 30 28 28 32 44 43 40 36 33 25 19 17 22 26 32 30 31 31 32 30 31
46 48 44 38 36 32 31 29 27 27 27 27 26 25 24 24 21 19 23 27 27 28 29 28 32 35 42 44 38 32 32 27 19 22 21 25 28 29 30 30 30 29 28
49 46 43 38 34 35 32 30 28 28 29 30 29 30 29 29 29 28 25 28 28 29 26 29 32 33 45 42 36 33 30 27 15 18 20 23 28 26 28 27 27 26 25
38 42 41 40 36 34 34 32 31 31 34 35 35 31 29 31 33 31 27 26 28 28 30 31 32 36 45 38 34 25 18 20 21 19 19 24 25 26 26 25 25 22 23
43 39 39 38 38 32 31 32 33 37 36 35 29 27 25 27 27 28 31 33 31 27 27 26 35 36 37 32 25 15 15 15 15 16 22 24 24 24 23 23 22 21 20
43 40 42 33 40 38 30 41 38 32 24 20 16 23 27 25 20 32 35 36 33 32 21 17 16 18 21 24 17 15 39 17 15 18 18 20 21 21 21 20 19 19 18
55 52 43 40 40 33 37 33 30 30 25 13 25 13 18 18 11 13 17 20 19 15 21 16 21 21 26 34 35 24 31 21 17 17 18 16 18 19 19 18 18 17 16
65 63 55 45 37 33 23 23 21 22 27 26 18 13 15 15 17 17 12 14 20 13 18 28 19 18 23 30 27 25 42 19 18 17 17 16 16 17 15 14 12 12 12
58 70 54 58 46 40 25 21 30 28 22 24 19 10 13 18 17 13 12 16 9 13 15 19 22 19 20 32 18 26 24 22 25 26 21 20 18 16 14 12 11 9 8
60 66 62 53 45 44 37 35 34 31 30 25 18 11 16 19 16 13 13 18 17 15 24 20 19 16 12 22 27 26 10 6 9 20 24 25 26 23 21 16 12 8 5
63 62 59 51 48 50 45 44 27 23 31 22 20 14 16 14 18 15 13 18 18 16 13 23 26 24 28 20 19 27 18 11 19 17 17 20 23 20 21 21 16 14 13
58 60 49 40 50 57 49 48 29 26 23 16 13 15 11 14 15 21 12 14 17 14 18 17 18 23 25 27 24 20 20 14 9 15 14 17 13 14 18 20 15 16 16
61 57 44 40 43 46 46 52 34 26 24 28 16 12 9 12 14 21 25 25 15 15 13 22 30 18 21 26 14 22 12 8 12 10 11 6 3 8 10 18 11 9 13
71 65 55 51 47 45 46 58 43 32 30 27 26 15 16 9 13 16 22 22 15 13 17 22 25 25 22 28 19 23 13 17 4 3 10 9 2 4 4 10 11 5 6
78 71 63 59 54 47 47 60 45 33 35 28 24 24 8 13 9 12 16 19 13 9 16 23 13 19 26 16 19 11 11 13 12 10 7 15 8 7 11 8 22 22 12
83 77 70 70 60 54 46 54 45 34 37 29 30 28 17 12 14 19 16 16 17 10 12 19 25 19 18 20 8 9 9 10 16 13 13 8 10 4 12 13 16 17 22
86 78 72 73 69 61 53 54 56 48 47 38 34 26 16 16 14 10 10 13 20 19 14 34 27 22 20 14 10 9 10 8 17 15 13 15 8 20 11 12 16 17 20
88 84 80 71 78 69 63 58 61 55 50 39 37 34 26 17 19 15 5 9 24 16 19 23 23 14 16 11 14 10 10 7 16 14 11 17 15 12 16 12 6 11 14
92 89 84 76 79 78 70 64 66 63 57 46 47 45 37 30 20 25 21 9 17 22 22 25 23 24 21 20 19 16 12 6 8 2 9 7 19 16 9 14 11 12 16
Wind_Direction_850mb
161 151 147 142 139 132 137 145 143 122 103 111 107 88 86 94 90 88 90 94 102 110 120 126 120 116 116 115 108 103 106 105 101 96 96 98 95 94 86 95 93 93 94
153 153 152 152 145 137 143 145 139 130 107 105 108 89 89 92 87 85 86 86 99 106 120 122 124 120 114 110 108 102 101 101 95 85 97 99 98 97 90 94 96 95 92
155 158 157 155 148 145 142 139 146 129 115 109 104 98 99 96 98 95 91 89 100 101 103 114 117 123 118 109 110 104 97 101 95 78 83 101 100 100 98 92 94 93 92
156 160 157 152 147 145 142 140 138 132 124 117 112 108 103 104 100 94 94 83 90 108 103 116 110 119 115 113 111 105 105 91 99 86 75 100 102 99 95 95 97 95 95
156 153 150 146 145 145 142 137 134 129 125 120 117 113 106 106 101 95 100 104 105 101 106 108 107 113 115 115 118 106 100 106 108 98 83 101 101 100 95 95 96 94 93
146 149 148 147 143 140 135 133 132 130 126 123 120 121 115 111 107 100 99 98 99 102 106 100 104 109 114 121 110 107 115 104 110 103 88 105 103 102 97 99 99 97 102
146 149 146 144 139 141 144 137 131 128 126 125 122 120 114 107 105 109 108 101 107 105 108 106 103 103 121 123 106 102 111 108 96 99 98 112 104 105 100 98 106 97 95
156 149 144 144 143 142 137 134 130 129 125 127 124 115 105 102 98 104 110 103 107 96 109 102 100 108 126 125 107 99 104 115 93 83 108 111 108 106 102 99 104 96 97
155 149 146 147 144 141 137 131 130 127 123 126 121 111 101 90 90 102 113 110 104 98 97 99 101 106 126 126 115 114 107 106 99 95 113 115 113 109 108 103 102 104 100
147 149 145 145 147 143 140 136 136 126 123 123 117 109 96 85 82 89 114 115 103 96 97 96 103 114 127 130 122 123 114 115 105 96 118 119 117 114 114 112 105 110 100
146 152 149 149 147 143 137 133 128 123 123 123 123 116 94 84 68 79 96 109 110 107 108 107 118 123 131 130 124 129 133 93 98 106 127 127 122 119 115 116 110 106 104
144 149 152 146 146 139 131 125 120 120 120 123 121 106 108 93 72 82 98 102 105 111 119 116 120 126 130 135 144 130 130 120 93 122 127 130 124 124 121 119 112 111 108
150 144 146 131 140 124 128 129 118 122 117 109 87 105 109 115 102 107 99 102 114 123 128 125 139 124 123 119 128 121 147 134 98 123 125 126 125 127 123 120 115 113 109
160 157 153 140 139 126 140 125 124 125 128 95 112 122 133 125 146 123 134 129 129 144 146 122 133 94 123 123 83 115 158 161 103 112 112 116 117 121 118 119 115 110 108
165 172 159 156 157 145 142 144 125 142 128 124 144 162 151 142 107 137 129 134 149 131 90 171 133 84 121 116 95 104 161 121 75 86 104 106 104 106 109 110 106 101 106
176 171 158 161 156 165 169 172 171 168 172 156 156 148 136 138 114 141 107 97 108 142 131 112 130 134 121 108 104 119 122 101 91 69 86 96 95 95 93 93 92 97 100
169 164 168 174 164 165 166 146 153 168 164 157 176 162 168 144 154 137 90 108 131 126 119 144 119 137 132 107 106 126 86 92 78 75 84 88 80 82 70 70 73 74 86
171 172 172 180 180 177 170 154 165 166 162 157 188 215 178 172 149 158 139 116 115 116 109 131 139 128 141 147 144 133 128 87 103 103 89 88 84 67 61 58 69 63 46
179 181 182 192 190 183 177 164 164 159 161 158 159 142 146 161 165 158 149 125 111 115 102 124 150 138 133 150 131 155 139 106 125 106 109 84 89 70 50 44 84 62 43
184 184 180 187 183 179 183 173 152 160 170 166 190 175 146 149 149 156 136 142 142 130 95 129 133 142 149 144 147 175 147 146 119 120 113 76 76 63 38 30 72 15 10
184 187 186 190 193 188 175 176 164 173 173 186 188 208 184 179 142 123 149 140 121 114 138 141 144 142 119 144 147 150 133 177 140 103 208 238 250 62 347 38 25 335 308
185 192 191 191 196 197 183 178 175 175 184 182 185 185 160 175 147 146 135 145 143 132 158 147 160 133 148 123 153 157 159 185 211 229 220 221 213 255 279 332 2 10 326
189 193 193 192 198 201 196 179 176 174 184 190 189 176 172 208 197 173 152 151 160 135 139 162 164 161 157 142 153 150 140 165 187 193 229 181 197 252 307 267 332 356 6
193 195 197 197 198 201 202 189 178 185 185 190 193 198 200 203 191 185 175 169 165 149 150 156 162 146 153 165 153 130 103 95 169 182 186 205 192 207 237 255 293 310 356
196 197 198 204 202 203 205 197 184 185 187 189 202 205 216 194 198 218 198 178 184 174 156 170 167 179 182 178 169 132 142 127 137 189 196 217 218 202 219 265 329 308 329
200 199 200 204 208 208 205 201 192 188 187 193 200 214 212 202 203 202 226 221 181 198 181 184 194 192 191 178 192 194 216 169 180 46 313 257 266 231 205 201 272 329 342